Weather History for Berlin, NH

Change the Weather History Date:

Tuesday, August 21, 2012

  Actual Average Record
Temperature  
Mean Temperature 62 °F -  
Max Temperature 75 °F 74 °F 86 °F (2003)
Min Temperature 46 °F 46 °F 37 °F (2007)
Degree Days  
Heating Degree Days 4    
Growing Degree Days 12 (Base 50)    
Moisture  
Dew Point 52 °F    
Average Humidity 72    
Maximum Humidity 93    
Minimum Humidity 40    
Precipitation  
Precipitation 0.00 in - - ()
Sea Level Pressure  
Sea Level Pressure 30.01 in    
Wind  
Wind Speed 1 mph (West)    
Max Wind Speed 7 mph    
Max Gust Speed -    
Visibility 10 miles    
Events Rain    
Averages and records for this station are not official NWS values.
T = Trace of Precipitation, MM = Missing Value Source: NWS Daily Summary

Daily Weather History Graph

Daily Weather History Graph

Search for Another Location

Airport:

Trip Planner

Search our weather history database for the weather conditions in past years. The results will help you decide how hot, cold, wet, or windy it might be!

Date:

Astronomy

Aug. 21, 2012 Rise Set
Actual Time 5:54 AM EDT 7:39 PM EDT
Civil Twilight 5:23 AM EDT 8:10 PM EDT
Nautical Twilight 4:46 AM EDT 8:48 PM EDT
Astronomical Twilight 4:05 AM EDT 9:28 PM EDT
Moon 10:36 AM EDT (8/21) 9:22 PM EDT (8/21)
Length of Visible Light 14h 46m
Length of Day
13h 44m
Waxing Crescent, 19% of the Moon is Illuminated
Aug 21
Waxing Crescent
Aug 24
First Quarter
Aug 31
Full
Sep 8
Last Quarter
Sep 15
New

Hourly Weather History & Observations

Time (EDT) Temp. Dew Point Humidity Pressure Visibility Wind Dir Wind Speed Gust Speed Precip Events Conditions
12:52 AM 57.0 °F 54.0 °F 89% 29.92 in 10.0 mi Calm Calm - N/A   Overcast
1:52 AM 57.0 °F 54.0 °F 89% 29.92 in 10.0 mi Calm Calm - N/A   Overcast
2:52 AM 57.0 °F 55.0 °F 93% 29.94 in 10.0 mi Calm Calm - 0.00 in Rain Light Rain
3:52 AM 57.0 °F 55.0 °F 93% 29.94 in 10.0 mi Calm Calm - 0.00 in   Overcast
4:52 AM 57.0 °F 55.0 °F 93% 29.94 in 10.0 mi Calm Calm - 0.00 in   Overcast
5:52 AM 57.0 °F 55.0 °F 93% 29.96 in 10.0 mi Calm Calm - N/A   Overcast
6:52 AM 57.0 °F 54.0 °F 89% 29.97 in 10.0 mi Calm Calm - N/A   Overcast
7:52 AM 57.9 °F 55.9 °F 93% 29.99 in 10.0 mi South 3.5 mph - N/A   Overcast
8:52 AM 64.0 °F 55.0 °F 73% 29.99 in 10.0 mi Calm Calm - N/A   Clear
9:52 AM 68.0 °F 54.0 °F 61% 29.99 in 10.0 mi Calm Calm - N/A   Clear
10:52 AM 72.0 °F 52.0 °F 49% 29.99 in 10.0 mi Calm Calm - N/A   Partly Cloudy
11:52 AM 73.0 °F 50.0 °F 44% 29.99 in 10.0 mi WNW 6.9 mph - N/A   Mostly Cloudy
12:52 PM 73.0 °F 50.0 °F 44% 30.00 in 10.0 mi WNW 5.8 mph - N/A   Overcast
1:52 PM 72.0 °F 50.0 °F 46% 30.01 in 10.0 mi Variable 5.8 mph - N/A   Overcast
2:52 PM 75.0 °F 48.9 °F 40% 30.01 in 10.0 mi Variable 6.9 mph - N/A   Scattered Clouds
3:52 PM 73.9 °F 48.9 °F 41% 30.01 in 10.0 mi Variable 5.8 mph - N/A   Partly Cloudy
4:52 PM 73.9 °F 48.9 °F 41% 30.02 in 10.0 mi Variable 5.8 mph - N/A   Clear
5:52 PM 72.0 °F 48.9 °F 44% 30.03 in 10.0 mi Calm Calm - N/A   Mostly Cloudy
6:52 PM 69.1 °F 50.0 °F 51% 30.05 in 10.0 mi Calm Calm - N/A   Partly Cloudy
7:52 PM 59.0 °F 54.0 °F 83% 30.07 in 10.0 mi Calm Calm - N/A   Clear
8:52 PM 54.0 °F 52.0 °F 93% 30.09 in 10.0 mi Calm Calm - N/A   Clear
9:52 PM 52.0 °F 48.9 °F 89% 30.11 in 10.0 mi Calm Calm - N/A   Clear
10:52 PM 48.9 °F 46.9 °F 93% 30.12 in 10.0 mi Calm Calm - N/A   Clear
11:52 PM 46.0 °F 44.1 °F 93% 30.13 in 10.0 mi Calm Calm - N/A   Clear